| time (UTC) | temp F | wind direction | speed MPH | gust MPH | rain 1hr in | rain 24hr in | rain mn in | humidity % | barometer mb |
| 20260906214256 | 84 | 145 | 5.0 | 8.0 | 0.00 | 0.00 | 0.00 | 81 | 1010.8 |
| 20260906213755 | 84 | 133 | 2.0 | 5.0 | 0.00 | 0.00 | 0.00 | 81 | 1011.0 |
| 20260906213255 | 84 | 126 | 5.0 | 6.0 | 0.00 | 0.00 | 0.00 | 81 | 1010.8 |
| 20260906212753 | 85 | 141 | 3.0 | 5.0 | 0.00 | 0.00 | 0.00 | 80 | 1010.5 |
| 20260906212248 | 85 | 135 | 3.0 | 6.0 | 0.00 | 0.00 | 0.00 | 79 | 1010.6 |
| 20260906211748 | 85 | 139 | 1.0 | 5.0 | 0.00 | 0.00 | 0.00 | 78 | 1010.7 |
| 20260906211243 | 85 | 132 | 7.0 | 13.0 | 0.00 | 0.00 | 0.00 | 78 | 1010.6 |
| 20260906210738 | 86 | 104 | 3.0 | 3.0 | 0.00 | 0.00 | 0.00 | 77 | 1010.3 |
| 20260906210233 | 86 | 149 | 6.0 | 8.0 | 0.00 | 0.00 | 0.00 | 77 | 1010.0 |
| 20260906205728 | 86 | 152 | 5.0 | 10.0 | 0.00 | 0.00 | 0.00 | 76 | 1009.6 |
| 20260906205225 | 86 | 133 | 10.0 | 11.0 | 0.00 | 0.00 | 0.00 | 76 | 1009.6 |
| 20260906204724 | 86 | 124 | 5.0 | 11.0 | 0.00 | 0.00 | 0.00 | 75 | 1009.5 |
| 20260906204224 | 86 | 221 | 3.0 | 9.0 | 0.00 | 0.00 | 0.00 | 75 | 1009.3 |
| 20260906203723 | 87 | 52 | 2.0 | 10.0 | 0.00 | 0.00 | 0.00 | 75 | 1009.3 |
| 20260906203218 | 87 | 91 | 8.0 | 11.0 | 0.00 | 0.00 | 0.00 | 76 | 1009.4 |
| 20260906202716 | 87 | 75 | 3.0 | 9.0 | 0.00 | 0.00 | 0.00 | 76 | 1009.5 |
| 20260906202214 | 87 | 219 | 6.0 | 8.0 | 0.00 | 0.00 | 0.00 | 75 | 1009.6 |
| 20260906201710 | 87 | 127 | 7.0 | 9.0 | 0.00 | 0.00 | 0.00 | 75 | 1009.7 |
| 20260906201209 | 87 | 174 | 3.0 | 9.0 | 0.00 | 0.00 | 0.00 | 74 | 1010.0 |
| 20260906200705 | 87 | 194 | 4.0 | 9.0 | 0.00 | 0.00 | 0.00 | 74 | 1010.3 |
| 20260906200201 | 87 | 119 | 6.0 | 10.0 | 0.00 | 0.00 | 0.00 | 74 | 1010.3 |
| 20260906195656 | 88 | 204 | 2.0 | 11.0 | 0.00 | 0.00 | 0.00 | 74 | 1010.5 |
| 20260906195153 | 88 | 196 | 1.0 | 11.0 | 0.00 | 0.00 | 0.00 | 73 | 1010.5 |
| 20260906194648 | 88 | 155 | 6.0 | 10.0 | 0.00 | 0.00 | 0.00 | 73 | 1010.8 |
| 20260906194143 | 88 | 118 | 4.0 | 8.0 | 0.00 | 0.00 | 0.00 | 73 | 1010.7 |
| 20260906193638 | 88 | 124 | 1.0 | 6.0 | 0.00 | 0.00 | 0.00 | 73 | 1010.7 |
| 20260906193133 | 89 | 273 | 3.0 | 8.0 | 0.00 | 0.00 | 0.00 | 73 | 1010.7 |
| 20260906192629 | 89 | 140 | 4.0 | 6.0 | 0.00 | 0.00 | 0.00 | 73 | 1010.9 |
| 20260906192128 | 89 | 199 | 2.0 | 7.0 | 0.00 | 0.00 | 0.00 | 73 | 1011.0 |
| 20260906191623 | 89 | 168 | 2.0 | 8.0 | 0.00 | 0.00 | 0.00 | 73 | 1011.0 |
| 20260906191122 | 89 | 178 | 4.0 | 8.0 | 0.00 | 0.00 | 0.00 | 73 | 1010.7 |
| 20260906190617 | 89 | 176 | 5.0 | 8.0 | 0.00 | 0.00 | 0.00 | 73 | 1010.8 |
| 20260906190111 | 89 | 180 | 3.0 | 5.0 | 0.00 | 0.00 | 0.00 | 73 | 1010.8 |
| 20260906185610 | 89 | 127 | 4.0 | 9.0 | 0.00 | 0.00 | 0.00 | 73 | 1010.8 |
| 20260906185109 | 89 | 157 | 5.0 | 6.0 | 0.00 | 0.00 | 0.00 | 73 | 1011.0 |
| 20260906184604 | 89 | 146 | 5.0 | 7.0 | 0.00 | 0.00 | 0.00 | 73 | 1010.9 |
| 20260906184100 | 89 | 205 | 3.0 | 8.0 | 0.00 | 0.00 | 0.00 | 72 | 1011.0 |
| 20260906183556 | 89 | 119 | 4.0 | 6.0 | 0.00 | 0.00 | 0.00 | 73 | 1011.1 |
| 20260906183051 | 89 | 124 | 4.0 | 6.0 | 0.00 | 0.00 | 0.00 | 72 | 1011.0 |
| 20260906182546 | 89 | 114 | 6.0 | 7.0 | 0.00 | 0.00 | 0.00 | 72 | 1011.1 |
| 20260906182042 | 89 | 81 | 5.0 | 8.0 | 0.00 | 0.00 | 0.00 | 73 | 1011.3 |
| 20260906181538 | 89 | 116 | 1.0 | 5.0 | 0.00 | 0.00 | 0.00 | 73 | 1011.4 |
| 20260906181033 | 89 | 96 | 1.0 | 8.0 | 0.00 | 0.00 | 0.00 | 73 | 1011.5 |
| 20260906180527 | 89 | 201 | 4.0 | 7.0 | 0.00 | 0.00 | 0.00 | 73 | 1011.5 |
| 20260906180027 | 89 | 181 | 4.0 | 6.0 | 0.00 | 0.00 | 0.00 | 72 | 1011.4 |
| 20260906175521 | 89 | 233 | 4.0 | 9.0 | 0.00 | 0.00 | 0.00 | 71 | 1011.6 |
| 20260906175020 | 89 | 147 | 4.0 | 6.0 | 0.00 | 0.00 | 0.00 | 70 | 1011.5 |
| 20260906174519 | 90 | 138 | 7.0 | 8.0 | 0.00 | 0.00 | 0.00 | 70 | 1011.4 |
| 20260906174014 | 90 | 125 | 5.0 | 9.0 | 0.00 | 0.00 | 0.00 | 70 | 1011.5 |
| 20260906173509 | 90 | 129 | 1.0 | 8.0 | 0.00 | 0.00 | 0.00 | 70 | 1011.7 |
| 20260906173004 | 90 | 122 | 3.0 | 9.0 | 0.00 | 0.00 | 0.00 | 69 | 1011.6 |
| 20260906172459 | 90 | 205 | 5.0 | 9.0 | 0.00 | 0.00 | 0.00 | 68 | 1011.5 |
| 20260906171954 | 91 | 141 | 5.0 | 9.0 | 0.00 | 0.00 | 0.00 | 68 | 1011.5 |
| 20260906171449 | 91 | 138 | 4.0 | 10.0 | 0.00 | 0.00 | 0.00 | 67 | 1011.6 |
| 20260906170944 | 91 | 103 | 5.0 | 8.0 | 0.00 | 0.00 | 0.00 | 66 | 1011.6 |
| 20260906170441 | 92 | 132 | 4.0 | 8.0 | 0.00 | 0.00 | 0.00 | 66 | 1011.7 |
| 20260906165937 | 91 | 191 | 1.0 | 2.0 | 0.00 | 0.00 | 0.00 | 65 | 1011.7 |
| 20260906165436 | 91 | 143 | 3.0 | 5.0 | 0.00 | 0.00 | 0.00 | 64 | 1011.7 |
| 20260906164932 | 91 | 21 | 2.0 | 5.0 | 0.00 | 0.00 | 0.00 | 65 | 1011.6 |
| 20260906164430 | 91 | 191 | 3.0 | 3.0 | 0.00 | 0.00 | 0.00 | 66 | 1011.6 |
| 20260906163926 | 91 | 178 | 0.0 | 2.0 | 0.00 | 0.00 | 0.00 | 66 | 1011.8 |
| 20260906163422 | 91 | 297 | 3.0 | 3.0 | 0.00 | 0.00 | 0.00 | 67 | 1011.9 |
| 20260906162921 | 91 | 2 | 1.0 | 5.0 | 0.00 | 0.00 | 0.00 | 67 | 1012.0 |
| 20260906162419 | 90 | 203 | 1.0 | 3.0 | 0.00 | 0.00 | 0.00 | 67 | 1011.9 |
| 20260906161915 | 90 | 195 | 3.0 | 6.0 | 0.00 | 0.00 | 0.00 | 67 | 1011.9 |
| 20260906161414 | 89 | 168 | 2.0 | 6.0 | 0.00 | 0.00 | 0.00 | 67 | 1012.1 |
| 20260906160913 | 90 | 114 | 1.0 | 5.0 | 0.00 | 0.00 | 0.00 | 67 | 1012.3 |
| 20260906160407 | 89 | 131 | 1.0 | 5.0 | 0.00 | 0.00 | 0.00 | 67 | 1012.3 |
| 20260906155905 | 89 | 182 | 0.0 | 1.0 | 0.00 | 0.00 | 0.00 | 68 | 1012.5 |
| 20260906155359 | 89 | 98 | 3.0 | 5.0 | 0.00 | 0.00 | 0.00 | 68 | 1012.4 |
| 20260906154855 | 89 | 80 | 5.0 | 7.0 | 0.00 | 0.00 | 0.00 | 68 | 1012.2 |
| 20260906154354 | 89 | 120 | 1.0 | 2.0 | 0.00 | 0.00 | 0.00 | 69 | 1012.3 |
| 20260906153853 | 89 | 153 | 0.0 | 5.0 | 0.00 | 0.00 | 0.00 | 69 | 1012.4 |
| 20260906153347 | 89 | 181 | 1.0 | 3.0 | 0.00 | 0.00 | 0.00 | 69 | 1012.4 |
| 20260906152843 | 89 | 206 | 2.0 | 3.0 | 0.00 | 0.00 | 0.00 | 69 | 1012.5 |
| 20260906152342 | 88 | 9 | 2.0 | 3.0 | 0.00 | 0.00 | 0.00 | 70 | 1012.5 |
| 20260906151842 | 88 | 134 | 0.0 | 2.0 | 0.00 | 0.00 | 0.00 | 69 | 1012.4 |
| 20260906151338 | 88 | 235 | 2.0 | 3.0 | 0.00 | 0.00 | 0.00 | 71 | 1012.6 |
| 20260906150833 | 88 | 167 | 0.0 | 1.0 | 0.00 | 0.00 | 0.00 | 72 | 1012.5 |
| 20260906150329 | 87 | 143 | 1.0 | 1.0 | 0.00 | 0.00 | 0.00 | 71 | 1012.6 |
| 20260906145828 | 88 | 188 | 0.0 | 3.0 | 0.00 | 0.00 | 0.00 | 72 | 1012.5 |
| 20260906145326 | 87 | 110 | 1.0 | 3.0 | 0.00 | 0.00 | 0.00 | 71 | 1012.6 |
| 20260906144822 | 87 | 144 | 3.0 | 6.0 | 0.00 | 0.00 | 0.00 | 73 | 1012.6 |
| 20260906144317 | 86 | 114 | 0.0 | 2.0 | 0.00 | 0.00 | 0.00 | 76 | 1012.4 |
| 20260906143816 | 86 | 153 | 1.0 | 2.0 | 0.00 | 0.00 | 0.00 | 76 | 1012.6 |
| 20260906143313 | 86 | 153 | 0.0 | 2.0 | 0.00 | 0.00 | 0.00 | 76 | 1012.5 |
| 20260906142808 | 86 | 43 | 2.0 | 5.0 | 0.00 | 0.00 | 0.00 | 76 | 1012.4 |
| 20260906142306 | 86 | 177 | 1.0 | 1.0 | 0.00 | 0.00 | 0.00 | 77 | 1012.6 |
| 20260906141802 | 85 | 140 | 0.0 | 1.0 | 0.00 | 0.00 | 0.00 | 77 | 1012.4 |
| 20260906141257 | 84 | 142 | 3.0 | 5.0 | 0.00 | 0.00 | 0.00 | 78 | 1012.4 |
| 20260906140755 | 84 | 69 | 1.0 | 2.0 | 0.00 | 0.00 | 0.00 | 79 | 1012.2 |
| 20260906140251 | 84 | 142 | 0.0 | 1.0 | 0.00 | 0.00 | 0.00 | 80 | 1012.3 |
| 20260906135749 | 83 | 174 | 2.0 | 2.0 | 0.00 | 0.00 | 0.00 | 80 | 1012.2 |
| 20260906135244 | 83 | 106 | 2.0 | 2.0 | 0.00 | 0.00 | 0.00 | 81 | 1012.0 |
| 20260906134739 | 83 | 181 | 0.0 | 3.0 | 0.00 | 0.00 | 0.00 | 82 | 1012.1 |
| 20260906134235 | 83 | 130 | 0.0 | 2.0 | 0.00 | 0.00 | 0.00 | 82 | 1012.1 |
| 20260906133730 | 82 | 150 | 0.0 | 1.0 | 0.00 | 0.00 | 0.00 | 82 | 1012.0 |
| 20260906133225 | 82 | 96 | 1.0 | 2.0 | 0.00 | 0.00 | 0.00 | 84 | 1012.1 |
| 20260906132720 | 81 | 114 | 3.0 | 5.0 | 0.00 | 0.00 | 0.00 | 85 | 1012.0 |
| 20260906132216 | 81 | 154 | 0.0 | 1.0 | 0.00 | 0.00 | 0.00 | 87 | 1012.0 |
| 20260906131712 | 80 | 128 | 0.0 | 1.0 | 0.00 | 0.00 | 0.00 | 88 | 1012.0 |
| 20260906131207 | 79 | 125 | 0.0 | 1.0 | 0.00 | 0.00 | 0.00 | 89 | 1012.0 |
| 20260906130702 | 79 | 110 | 1.0 | 2.0 | 0.00 | 0.00 | 0.00 | 90 | 1012.0 |
| 20260906130157 | 78 | 143 | 0.0 | 1.0 | 0.00 | 0.00 | 0.00 | 91 | 1011.9 |
| 20260906125655 | 77 | 173 | 1.0 | 2.0 | 0.00 | 0.00 | 0.00 | 92 | 1011.8 |
| 20260906125154 | 77 | 135 | 0.0 | 2.0 | 0.00 | 0.00 | 0.00 | 93 | 1011.7 |
| 20260906124649 | 76 | 120 | 0.0 | 0.0 | 0.00 | 0.00 | 0.00 | 93 | 1011.7 |
| 20260906124144 | 75 | 120 | 0.0 | 0.0 | 0.00 | 0.00 | 0.00 | 94 | 1011.8 |
| 20260906123643 | 75 | 118 | 0.0 | 0.0 | 0.00 | 0.00 | 0.00 | 94 | 1012.0 |
| 20260906123139 | 74 | 118 | 1.0 | 1.0 | 0.00 | 0.00 | 0.00 | 94 | 1011.8 |
| 20260906122638 | 74 | 120 | 0.0 | 1.0 | 0.00 | 0.00 | 0.00 | 94 | 1011.8 |
| 20260906122133 | 74 | 118 | 0.0 | 0.0 | 0.00 | 0.00 | 0.00 | 94 | 1011.7 |
| 20260906121630 | 74 | 116 | 0.0 | 0.0 | 0.00 | 0.00 | 0.00 | 94 | 1011.6 |
| 20260906121126 | 73 | 116 | 0.0 | 0.0 | 0.00 | 0.00 | 0.00 | 94 | 1011.4 |
| 20260906120621 | 73 | 115 | 0.0 | 0.0 | 0.00 | 0.00 | 0.00 | 94 | 1011.5 |
| 20260906120118 | 73 | 114 | 0.0 | 0.0 | 0.00 | 0.00 | 0.00 | 93 | 1011.5 |
| 20260906115612 | 73 | 151 | 0.0 | 0.0 | 0.00 | 0.00 | 0.00 | 93 | 1011.5 |
| 20260906115108 | 73 | 151 | 0.0 | 0.0 | 0.00 | 0.00 | 0.00 | 93 | 1011.3 |
| 20260906114608 | 73 | 160 | 0.0 | 0.0 | 0.00 | 0.00 | 0.00 | 93 | 1011.2 |
| 20260906114103 | 73 | 188 | 0.0 | 0.0 | 0.00 | 0.00 | 0.00 | 93 | 1011.3 |
| 20260906113603 | 73 | 206 | 0.0 | 0.0 | 0.00 | 0.00 | 0.00 | 93 | 1011.4 |
| 20260906113057 | 73 | 207 | 0.0 | 0.0 | 0.00 | 0.00 | 0.00 | 93 | 1011.2 |
| 20260906112551 | 73 | 215 | 0.0 | 0.0 | 0.00 | 0.00 | 0.00 | 93 | 1011.1 |
| 20260906112048 | 73 | 221 | 0.0 | 0.0 | 0.00 | 0.00 | 0.00 | 93 | 1011.1 |
| 20260906111548 | 73 | 223 | 0.0 | 0.0 | 0.00 | 0.00 | 0.00 | 93 | 1011.1 |
| 20260906111043 | 73 | 229 | 0.0 | 0.0 | 0.00 | 0.00 | 0.00 | 93 | 1011.1 |
| 20260906110543 | 73 | 223 | 0.0 | 0.0 | 0.00 | 0.00 | 0.00 | 93 | 1011.1 |
| 20260906110042 | 73 | 223 | 0.0 | 0.0 | 0.00 | 0.00 | 0.00 | 93 | 1011.0 |
| 20260906105537 | 73 | 224 | 0.0 | 0.0 | 0.00 | 0.00 | 0.00 | 93 | 1010.9 |
| 20260906105033 | 73 | 223 | 0.0 | 0.0 | 0.00 | 0.00 | 0.00 | 93 | 1011.0 |
| 20260906104532 | 73 | 225 | 0.0 | 0.0 | 0.00 | 0.00 | 0.00 | 93 | 1010.8 |
| 20260906104027 | 73 | 238 | 0.0 | 0.0 | 0.00 | 0.00 | 0.00 | 93 | 1010.7 |
| 20260906103525 | 73 | 254 | 0.0 | 0.0 | 0.00 | 0.00 | 0.00 | 93 | 1010.6 |
| 20260906103020 | 74 | 226 | 0.0 | 0.0 | 0.00 | 0.00 | 0.00 | 93 | 1010.6 |
| 20260906102520 | 74 | 223 | 0.0 | 0.0 | 0.00 | 0.00 | 0.00 | 93 | 1010.6 |
| 20260906102015 | 74 | 224 | 0.0 | 0.0 | 0.00 | 0.00 | 0.00 | 93 | 1010.5 |
| 20260906101509 | 74 | 225 | 0.0 | 0.0 | 0.00 | 0.00 | 0.00 | 93 | 1010.5 |
| 20260906101004 | 74 | 161 | 0.0 | 0.0 | 0.00 | 0.00 | 0.00 | 93 | 1010.7 |
| 20260906100459 | 74 | 212 | 0.0 | 0.0 | 0.00 | 0.00 | 0.00 | 93 | 1010.3 |
| 20260906095954 | 74 | 225 | 0.0 | 0.0 | 0.00 | 0.00 | 0.00 | 93 | 1010.5 |
| 20260906095449 | 74 | 236 | 0.0 | 0.0 | 0.00 | 0.00 | 0.00 | 93 | 1010.3 |
| 20260906094944 | 74 | 232 | 0.0 | 0.0 | 0.00 | 0.00 | 0.00 | 93 | 1010.4 |
| 20260906094438 | 74 | 114 | 0.0 | 0.0 | 0.00 | 0.00 | 0.00 | 93 | 1010.3 |
| 20260906093934 | 74 | 162 | 0.0 | 0.0 | 0.00 | 0.00 | 0.00 | 93 | 1010.3 |
| 20260906093430 | 74 | 216 | 0.0 | 0.0 | 0.00 | 0.00 | 0.00 | 93 | 1010.1 |
| 20260906092930 | 75 | 218 | 0.0 | 0.0 | 0.00 | 0.00 | 0.00 | 93 | 1010.1 |
| 20260906092430 | 75 | 111 | 0.0 | 0.0 | 0.00 | 0.00 | 0.00 | 93 | 1009.9 |
| 20260906091925 | 75 | 109 | 0.0 | 0.0 | 0.00 | 0.00 | 0.00 | 93 | 1010.1 |
| 20260906091421 | 75 | 223 | 0.0 | 0.0 | 0.00 | 0.00 | 0.00 | 92 | 1010.1 |
| 20260906090917 | 75 | 230 | 0.0 | 0.0 | 0.00 | 0.00 | 0.00 | 92 | 1010.1 |
| 20260906090412 | 75 | 233 | 0.0 | 0.0 | 0.00 | 0.00 | 0.00 | 92 | 1010.0 |
| 20260906085907 | 75 | 213 | 0.0 | 0.0 | 0.00 | 0.00 | 0.00 | 92 | 1010.1 |
| 20260906085405 | 75 | 226 | 0.0 | 0.0 | 0.00 | 0.00 | 0.00 | 92 | 1010.1 |
| 20260906084859 | 75 | 222 | 0.0 | 0.0 | 0.00 | 0.00 | 0.00 | 92 | 1010.0 |
| 20260906084354 | 75 | 231 | 0.0 | 0.0 | 0.00 | 0.00 | 0.00 | 92 | 1010.0 |
| 20260906083848 | 75 | 232 | 0.0 | 0.0 | 0.00 | 0.00 | 0.00 | 92 | 1010.1 |
| 20260906083344 | 75 | 234 | 0.0 | 0.0 | 0.00 | 0.00 | 0.00 | 92 | 1010.2 |
| 20260906082844 | 75 | 233 | 0.0 | 0.0 | 0.00 | 0.00 | 0.00 | 92 | 1010.0 |
| 20260906082338 | 76 | 233 | 0.0 | 0.0 | 0.00 | 0.00 | 0.00 | 92 | 1010.1 |
| 20260906081835 | 76 | 239 | 0.0 | 0.0 | 0.00 | 0.00 | 0.00 | 92 | 1010.1 |
| 20260906081330 | 76 | 241 | 0.0 | 0.0 | 0.00 | 0.00 | 0.00 | 92 | 1009.9 |
| 20260906080826 | 76 | 208 | 0.0 | 0.0 | 0.00 | 0.00 | 0.00 | 92 | 1010.1 |
| 20260906080322 | 76 | 207 | 0.0 | 0.0 | 0.00 | 0.00 | 0.00 | 92 | 1010.3 |
| 20260906075821 | 76 | 189 | 0.0 | 0.0 | 0.00 | 0.00 | 0.00 | 92 | 1010.3 |
| 20260906075316 | 76 | 185 | 0.0 | 1.0 | 0.00 | 0.00 | 0.00 | 92 | 1010.4 |
| 20260906074811 | 76 | 15 | 0.0 | 1.0 | 0.00 | 0.00 | 0.00 | 92 | 1010.2 |
| 20260906074311 | 76 | 14 | 0.0 | 0.0 | 0.00 | 0.00 | 0.00 | 92 | 1010.1 |
| 20260906073810 | 77 | 15 | 0.0 | 0.0 | 0.00 | 0.00 | 0.00 | 92 | 1010.1 |
| 20260906073305 | 77 | 16 | 0.0 | 0.0 | 0.00 | 0.00 | 0.00 | 92 | 1010.2 |
| 20260906072802 | 77 | 16 | 0.0 | 0.0 | 0.00 | 0.00 | 0.00 | 92 | 1010.1 |
| 20260906072257 | 77 | 16 | 0.0 | 0.0 | 0.00 | 0.00 | 0.00 | 92 | 1010.2 |
| 20260906071753 | 77 | 16 | 0.0 | 0.0 | 0.00 | 0.00 | 0.00 | 92 | 1010.2 |
| 20260906071252 | 77 | 16 | 0.0 | 0.0 | 0.00 | 0.00 | 0.00 | 92 | 1010.2 |
| 20260906070749 | 77 | 16 | 0.0 | 0.0 | 0.00 | 0.00 | 0.00 | 92 | 1010.4 |
| 20260906070244 | 78 | 17 | 0.0 | 0.0 | 0.00 | 0.00 | 0.00 | 91 | 1010.7 |
| 20260906065744 | 78 | 16 | 0.0 | 0.0 | 0.00 | 0.00 | 0.00 | 91 | 1010.9 |
| 20260906065239 | 78 | 16 | 0.0 | 0.0 | 0.00 | 0.00 | 0.00 | 91 | 1011.0 |
| 20260906064735 | 78 | 16 | 0.0 | 0.0 | 0.00 | 0.00 | 0.00 | 91 | 1011.0 |
| 20260906064230 | 78 | 16 | 0.0 | 0.0 | 0.00 | 0.00 | 0.00 | 91 | 1010.8 |
| 20260906063725 | 78 | 16 | 0.0 | 0.0 | 0.00 | 0.00 | 0.00 | 91 | 1010.7 |
| 20260906063221 | 78 | 16 | 0.0 | 0.0 | 0.00 | 0.00 | 0.00 | 91 | 1010.7 |
| 20260906062716 | 79 | 16 | 0.0 | 0.0 | 0.00 | 0.00 | 0.00 | 91 | 1010.7 |
| 20260906062215 | 79 | 16 | 0.0 | 0.0 | 0.00 | 0.00 | 0.00 | 91 | 1010.7 |
| 20260906061711 | 79 | 16 | 0.0 | 0.0 | 0.00 | 0.00 | 0.00 | 91 | 1010.9 |
| 20260906061207 | 79 | 16 | 0.0 | 0.0 | 0.00 | 0.00 | 0.00 | 91 | 1011.0 |
| 20260906060657 | 79 | 16 | 0.0 | 0.0 | 0.00 | 0.00 | 0.00 | 91 | 1011.1 |
| 20260906060154 | 79 | 16 | 0.0 | 0.0 | 0.00 | 0.00 | 0.00 | 91 | 1011.0 |
| 20260906055649 | 80 | 17 | 0.0 | 0.0 | 0.00 | 0.00 | 0.00 | 91 | 1010.8 |
| 20260906055144 | 80 | 17 | 0.0 | 0.0 | 0.00 | 0.00 | 0.00 | 91 | 1010.9 |
| 20260906054640 | 80 | 17 | 0.0 | 0.0 | 0.00 | 0.00 | 0.00 | 91 | 1010.9 |
| 20260906054134 | 80 | 17 | 0.0 | 0.0 | 0.00 | 0.00 | 0.00 | 91 | 1010.9 |
| 20260906053631 | 80 | 17 | 0.0 | 0.0 | 0.00 | 0.00 | 0.00 | 91 | 1011.2 |
| 20260906053131 | 80 | 17 | 0.0 | 0.0 | 0.00 | 0.00 | 0.00 | 91 | 1011.2 |
| 20260906052627 | 80 | 17 | 0.0 | 0.0 | 0.00 | 0.00 | 0.00 | 91 | 1011.2 |
| 20260906052124 | 81 | 17 | 0.0 | 0.0 | 0.00 | 0.00 | 0.00 | 91 | 1011.0 |
| 20260906051620 | 81 | 17 | 0.0 | 0.0 | 0.00 | 0.00 | 0.00 | 91 | 1011.0 |
| 20260906051114 | 81 | 17 | 0.0 | 0.0 | 0.00 | 0.00 | 0.00 | 91 | 1011.1 |
| 20260906050610 | 81 | 17 | 0.0 | 0.0 | 0.00 | 0.00 | 0.00 | 91 | 1011.1 |
| 20260906050105 | 81 | 17 | 0.0 | 0.0 | 0.00 | 0.00 | 0.00 | 91 | 1011.2 |
| 20260906045603 | 81 | 17 | 0.0 | 0.0 | 0.00 | 0.00 | 0.00 | 91 | 1011.1 |
| 20260906045059 | 81 | 15 | 0.0 | 0.0 | 0.00 | 0.00 | 0.00 | 91 | 1011.3 |
| 20260906044554 | 81 | 16 | 0.0 | 0.0 | 0.00 | 0.00 | 0.00 | 91 | 1011.2 |
| 20260906044049 | 82 | 7 | 0.0 | 1.0 | 0.00 | 0.00 | 0.00 | 91 | 1011.4 |
| 20260906043545 | 82 | 120 | 1.0 | 1.0 | 0.00 | 0.00 | 0.00 | 91 | 1011.5 |
| 20260906043041 | 82 | 226 | 0.0 | 0.0 | 0.00 | 0.00 | 0.00 | 91 | 1011.5 |
| 20260906042540 | 82 | 17 | 0.0 | 1.0 | 0.00 | 0.00 | 0.00 | 91 | 1011.7 |
| 20260906042034 | 82 | 83 | 0.0 | 2.0 | 0.00 | 0.00 | 0.00 | 91 | 1011.7 |
| 20260906041531 | 82 | 226 | 0.0 | 0.0 | 0.00 | 0.00 | 0.00 | 91 | 1011.6 |
| 20260906041031 | 82 | 226 | 0.0 | 0.0 | 0.00 | 0.00 | 0.00 | 91 | 1011.8 |
| 20260906040520 | 82 | 191 | 0.0 | 0.0 | 0.00 | 0.00 | 0.00 | 91 | 1011.7 |
| 20260906040016 | 82 | 227 | 0.0 | 0.0 | 0.00 | 0.00 | 0.00 | 91 | 1011.7 |
| 20260906035511 | 82 | 208 | 0.0 | 0.0 | 0.00 | 0.00 | 0.00 | 91 | 1011.7 |
| 20260906035007 | 82 | 219 | 0.0 | 0.0 | 0.00 | 0.00 | 0.00 | 90 | 1011.7 |
| 20260906034506 | 82 | 229 | 0.0 | 0.0 | 0.00 | 0.00 | 0.00 | 90 | 1011.7 |
| 20260906033956 | 82 | 228 | 0.0 | 0.0 | 0.00 | 0.00 | 0.00 | 90 | 1011.7 |
| 20260906033456 | 82 | 207 | 0.0 | 0.0 | 0.00 | 0.00 | 0.00 | 90 | 1011.7 |
| 20260906032951 | 82 | 227 | 0.0 | 0.0 | 0.00 | 0.00 | 0.00 | 90 | 1011.6 |
| 20260906032449 | 82 | 237 | 0.0 | 0.0 | 0.00 | 0.00 | 0.00 | 90 | 1011.6 |
| 20260906031948 | 82 | 245 | 0.0 | 0.0 | 0.00 | 0.00 | 0.00 | 90 | 1011.6 |
| 20260906031443 | 82 | 216 | 2.0 | 2.0 | 0.00 | 0.00 | 0.00 | 90 | 1011.3 |
| 20260906030939 | 82 | 266 | 0.0 | 0.0 | 0.00 | 0.00 | 0.00 | 90 | 1011.5 |
| 20260906030434 | 82 | 267 | 1.0 | 1.0 | 0.00 | 0.00 | 0.00 | 90 | 1011.6 |
| 20260906025934 | 82 | 235 | 0.0 | 1.0 | 0.00 | 0.00 | 0.00 | 90 | 1011.6 |
| 20260906025428 | 82 | 148 | 1.0 | 3.0 | 0.00 | 0.00 | 0.00 | 90 | 1011.4 |
| 20260906024927 | 82 | 296 | 1.0 | 2.0 | 0.00 | 0.00 | 0.00 | 89 | 1011.4 |
| 20260906024426 | 82 | 227 | 1.0 | 3.0 | 0.00 | 0.00 | 0.00 | 89 | 1011.4 |
| 20260906023922 | 82 | 230 | 0.0 | 0.0 | 0.00 | 0.00 | 0.00 | 89 | 1011.2 |
| 20260906023418 | 82 | 218 | 1.0 | 5.0 | 0.00 | 0.00 | 0.00 | 89 | 1011.0 |
| 20260906022918 | 82 | 224 | 0.0 | 3.0 | 0.00 | 0.00 | 0.00 | 89 | 1011.0 |
| 20260906022413 | 83 | 212 | 2.0 | 3.0 | 0.00 | 0.00 | 0.00 | 89 | 1011.0 |
| 20260906021909 | 82 | 209 | 3.0 | 3.0 | 0.00 | 0.00 | 0.00 | 89 | 1010.7 |
| 20260906021408 | 82 | 217 | 2.0 | 3.0 | 0.00 | 0.00 | 0.00 | 89 | 1010.6 |
| 20260906020903 | 83 | 221 | 4.0 | 6.0 | 0.00 | 0.00 | 0.00 | 89 | 1010.3 |
| 20260906020357 | 82 | 197 | 4.0 | 5.0 | 0.00 | 0.00 | 0.00 | 88 | 1010.9 |
| 20260906015852 | 83 | 182 | 0.0 | 0.0 | 0.00 | 0.00 | 0.00 | 88 | 1010.9 |
| 20260906015351 | 83 | 254 | 0.0 | 0.0 | 0.00 | 0.00 | 0.00 | 88 | 1011.1 |
| 20260906014850 | 83 | 229 | 0.0 | 0.0 | 0.00 | 0.00 | 0.00 | 88 | 1010.8 |
| 20260906014345 | 83 | 332 | 1.0 | 1.0 | 0.00 | 0.00 | 0.00 | 88 | 1010.4 |
| 20260906013841 | 83 | 223 | 0.0 | 3.0 | 0.00 | 0.00 | 0.00 | 88 | 1009.9 |
| 20260906013336 | 83 | 208 | 4.0 | 6.0 | 0.00 | 0.00 | 0.00 | 88 | 1009.7 |
| 20260906012832 | 83 | 227 | 2.0 | 5.0 | 0.00 | 0.00 | 0.00 | 88 | 1009.9 |
| 20260906012327 | 83 | 197 | 3.0 | 6.0 | 0.00 | 0.00 | 0.00 | 87 | 1010.0 |
| 20260906011826 | 83 | 199 | 3.0 | 3.0 | 0.00 | 0.00 | 0.00 | 87 | 1010.6 |
| 20260906011321 | 83 | 206 | 2.0 | 2.0 | 0.00 | 0.00 | 0.00 | 87 | 1010.7 |
| 20260906010817 | 83 | 337 | 0.0 | 2.0 | 0.00 | 0.00 | 0.00 | 87 | 1011.1 |
| 20260906010313 | 83 | 196 | 1.0 | 2.0 | 0.00 | 0.00 | 0.00 | 87 | 1010.8 |
| 20260906005808 | 83 | 214 | 0.0 | 2.0 | 0.00 | 0.00 | 0.00 | 87 | 1010.8 |
| 20260906005307 | 83 | 207 | 2.0 | 3.0 | 0.00 | 0.00 | 0.00 | 87 | 1011.2 |
| 20260906004806 | 83 | 282 | 1.0 | 2.0 | 0.00 | 0.00 | 0.00 | 86 | 1010.9 |
| 20260906004301 | 83 | 214 | 3.0 | 5.0 | 0.00 | 0.00 | 0.00 | 86 | 1010.8 |
| 20260906003756 | 83 | 193 | 2.0 | 5.0 | 0.00 | 0.00 | 0.00 | 86 | 1010.9 |
| 20260906003252 | 84 | 232 | 2.0 | 5.0 | 0.00 | 0.00 | 0.00 | 86 | 1011.2 |
| 20260906002747 | 84 | 209 | 3.0 | 6.0 | 0.00 | 0.00 | 0.00 | 86 | 1011.0 |
| 20260906002246 | 84 | 224 | 5.0 | 7.0 | 0.00 | 0.00 | 0.00 | 86 | 1011.1 |
| 20260906001742 | 84 | 175 | 2.0 | 2.0 | 0.00 | 0.00 | 0.00 | 86 | 1011.3 |
| 20260906001237 | 84 | 204 | 3.0 | 5.0 | 0.00 | 0.00 | 0.00 | 85 | 1011.3 |
| 20260906000732 | 84 | 236 | 1.0 | 2.0 | 0.00 | 0.00 | 0.00 | 85 | 1011.4 |
| 20260906000234 | 84 | 237 | 1.0 | 2.0 | 0.00 | 0.00 | 0.00 | 85 | 1011.4 |
| 20260905235733 | 84 | 197 | 4.0 | 6.0 | 0.00 | 0.00 | 0.00 | 85 | 1011.3 |
| 20260905235227 | 84 | 207 | 3.0 | 6.0 | 0.00 | 0.00 | 0.00 | 85 | 1011.2 |
| 20260905234723 | 84 | 220 | 5.0 | 7.0 | 0.00 | 0.00 | 0.00 | 85 | 1011.1 |
| 20260905234218 | 85 | 185 | 3.0 | 6.0 | 0.00 | 0.00 | 0.00 | 85 | 1011.2 |
| 20260905233713 | 85 | 230 | 1.0 | 3.0 | 0.00 | 0.00 | 0.00 | 85 | 1011.2 |
| 20260905233212 | 85 | 249 | 4.0 | 7.0 | 0.00 | 0.00 | 0.00 | 84 | 1011.4 |
| 20260905232707 | 85 | 194 | 0.0 | 8.0 | 0.00 | 0.00 | 0.00 | 84 | 1011.3 |
| 20260905232203 | 85 | 228 | 5.0 | 6.0 | 0.00 | 0.00 | 0.00 | 84 | 1011.1 |
| 20260905231658 | 86 | 212 | 7.0 | 9.0 | 0.00 | 0.00 | 0.00 | 84 | 1011.1 |
| 20260905231154 | 86 | 163 | 1.0 | 6.0 | 0.00 | 0.00 | 0.00 | 84 | 1011.1 |
| 20260905230650 | 86 | 222 | 1.0 | 7.0 | 0.00 | 0.00 | 0.00 | 83 | 1011.1 |
| 20260905230148 | 86 | 201 | 3.0 | 6.0 | 0.00 | 0.00 | 0.00 | 83 | 1011.0 |
| 20260905225647 | 86 | 211 | 5.0 | 7.0 | 0.00 | 0.00 | 0.00 | 83 | 1011.0 |
| 20260905225142 | 86 | 203 | 6.0 | 9.0 | 0.00 | 0.00 | 0.00 | 83 | 1011.1 |
| 20260905224641 | 87 | 197 | 3.0 | 5.0 | 0.00 | 0.00 | 0.00 | 83 | 1011.1 |
| 20260905224136 | 87 | 199 | 5.0 | 9.0 | 0.00 | 0.00 | 0.00 | 83 | 1011.0 |
| 20260905223633 | 87 | 225 | 7.0 | 8.0 | 0.00 | 0.00 | 0.00 | 83 | 1011.2 |
| 20260905223129 | 87 | 244 | 6.0 | 7.0 | 0.00 | 0.00 | 0.00 | 83 | 1010.7 |
| 20260905222624 | 87 | 196 | 6.0 | 8.0 | 0.00 | 0.00 | 0.00 | 82 | 1010.7 |
| 20260905222114 | 87 | 211 | 0.0 | 3.0 | 0.00 | 0.00 | 0.00 | 82 | 1010.7 |
| 20260905221609 | 87 | 206 | 4.0 | 10.0 | 0.00 | 0.00 | 0.00 | 82 | 1010.6 |
| 20260905221105 | 87 | 199 | 1.0 | 5.0 | 0.00 | 0.00 | 0.00 | 82 | 1010.8 |
| 20260905220600 | 87 | 195 | 1.0 | 9.0 | 0.00 | 0.00 | 0.00 | 82 | 1010.8 |
| 20260905220051 | 87 | 197 | 6.0 | 9.0 | 0.00 | 0.00 | 0.00 | 82 | 1010.7 |
| 20260905215550 | 87 | 214 | 6.0 | 9.0 | 0.00 | 0.00 | 0.00 | 82 | 1010.6 |
| 20260905215046 | 87 | 174 | 2.0 | 9.0 | 0.00 | 0.00 | 0.00 | 82 | 1010.8 |